TimeMDT,TemperatureF,Dew PointF,Humidity,Sea Level PressureIn,VisibilityMPH,Wind Direction,Wind SpeedMPH,Gust SpeedMPH,PrecipitationIn,Events,Conditions,WindDirDegrees,DateUTC
12:53 AM,34.0,33.1,96,30.11,0.2,ENE,8.1,-,N/A,Fog,Fog,70,2012-11-01 06:53:00
1:53 AM,33.1,32.0,96,30.11,0.2,East,8.1,-,N/A,Fog,Fog,80,2012-11-01 07:53:00
2:53 AM,33.1,32.0,96,30.09,0.2,East,8.1,-,N/A,Fog,Fog,100,2012-11-01 08:53:00
3:15 AM,33.8,32.0,93,30.06,0.5,East,9.2,-,N/A,Fog,Fog,100,2012-11-01 09:15:00
3:53 AM,33.1,32.0,96,30.10,0.5,ESE,8.1,-,N/A,Fog,Fog,110,2012-11-01 09:53:00
4:53 AM,32.0,30.9,96,30.09,0.5,ESE,11.5,-,N/A,Fog,Fog,120,2012-11-01 10:53:00
5:53 AM,32.0,30.9,96,30.09,0.5,ESE,9.2,-,N/A,Fog,Fog,120,2012-11-01 11:53:00
6:39 AM,32.0,30.2,93,30.03,0.2,ESE,12.7,-,N/A,Fog,Fog,120,2012-11-01 12:39:00
6:53 AM,32.0,30.9,96,30.10,0.2,ESE,11.5,-,N/A,Fog,Fog,120,2012-11-01 12:53:00
7:53 AM,33.1,32.0,96,30.08,0.2,ESE,15.0,-,N/A,Fog,Fog,110,2012-11-01 13:53:00
9:53 AM,35.1,34.0,96,30.06,0.2,ESE,16.1,23.0,N/A,Fog,Fog,120,2012-11-01 15:53:00
10:53 AM,35.1,34.0,96,30.05,0.2,ESE,16.1,-,N/A,Fog,Fog,120,2012-11-01 16:53:00
11:17 AM,35.6,35.6,100,29.98,0.5,SE,17.3,-,N/A,Fog,Fog,130,2012-11-01 17:17:00
11:29 AM,35.6,35.6,100,29.98,0.2,ESE,16.1,28.8,N/A,Fog,Fog,120,2012-11-01 17:29:00
11:53 AM,36.0,35.1,97,30.04,0.2,SE,15.0,-,N/A,Fog,Fog,130,2012-11-01 17:53:00
12:16 PM,35.6,33.8,93,29.96,0.2,ESE,16.1,24.2,N/A,Fog,Fog,120,2012-11-01 18:16:00
12:27 PM,35.6,35.6,100,29.96,0.5,ESE,17.3,20.7,N/A,Fog,Fog,120,2012-11-01 18:27:00
12:37 PM,35.6,33.8,93,29.95,0.2,SE,18.4,24.2,N/A,Fog,Fog,130,2012-11-01 18:37:00
12:53 PM,36.0,35.1,97,30.01,0.2,ESE,15.0,-,N/A,Fog,Fog,110,2012-11-01 18:53:00
1:31 PM,35.6,35.6,100,29.92,1.2,ESE,18.4,24.2,N/A,,Overcast,120,2012-11-01 19:31:00
1:34 PM,35.6,33.8,93,29.92,3.0,SE,19.6,24.2,N/A,,Overcast,130,2012-11-01 19:34:00
1:48 PM,35.6,35.6,100,29.93,1.8,ESE,15.0,24.2,N/A,,Overcast,120,2012-11-01 19:48:00
1:53 PM,35.1,34.0,96,30.00,1.0,ESE,18.4,23.0,N/A,,Overcast,120,2012-11-01 19:53:00
2:14 PM,35.6,33.8,93,29.93,2.0,ESE,13.8,21.9,N/A,,Overcast,120,2012-11-01 20:14:00
2:33 PM,35.6,35.6,100,29.93,0.8,ESE,13.8,-,N/A,,Overcast,120,2012-11-01 20:33:00
2:44 PM,35.6,35.6,100,29.92,0.5,ESE,12.7,-,N/A,Fog,Fog,120,2012-11-01 20:44:00
2:53 PM,36.0,34.0,93,29.99,0.8,ESE,16.1,20.7,N/A,,Mist,120,2012-11-01 20:53:00
3:05 PM,35.6,33.8,93,29.92,0.2,ESE,15.0,-,N/A,Fog,Fog,110,2012-11-01 21:05:00
3:40 PM,35.6,33.8,93,29.91,1.0,ESE,16.1,-,N/A,,Mist,120,2012-11-01 21:40:00
3:46 PM,35.6,33.8,93,29.90,3.0,ESE,13.8,-,N/A,,Overcast,120,2012-11-01 21:46:00
3:53 PM,35.1,34.0,96,29.98,10.0,SE,13.8,21.9,N/A,,Overcast,130,2012-11-01 21:53:00
4:17 PM,35.6,33.8,93,29.90,10.0,SE,15.0,-,N/A,,Overcast,140,2012-11-01 22:17:00
4:49 PM,35.6,33.8,93,29.89,10.0,SE,12.7,-,N/A,,Partly Cloudy,140,2012-11-01 22:49:00
4:53 PM,35.1,33.1,92,29.96,10.0,SE,15.0,-,N/A,,Partly Cloudy,130,2012-11-01 22:53:00
5:53 PM,34.0,30.0,85,29.97,10.0,ESE,10.4,-,N/A,,Partly Cloudy,120,2012-11-01 23:53:00
6:53 PM,32.0,26.1,79,30.00,10.0,East,5.8,-,N/A,,Clear,100,2012-11-02 00:53:00
7:53 PM,32.0,26.1,79,29.99,10.0,East,6.9,-,N/A,,Partly Cloudy,90,2012-11-02 01:53:00
8:30 PM,30.2,24.8,80,29.91,10.0,East,11.5,-,N/A,,Mostly Cloudy,90,2012-11-02 02:30:00
8:53 PM,32.0,25.0,75,29.97,10.0,East,12.7,-,N/A,,Overcast,100,2012-11-02 02:53:00
9:53 PM,33.1,25.0,72,29.98,10.0,ESE,13.8,19.6,N/A,,Overcast,110,2012-11-02 03:53:00
10:53 PM,32.0,24.1,73,29.99,10.0,ESE,10.4,-,N/A,,Overcast,110,2012-11-02 04:53:00
11:53 PM,32.0,23.0,69,30.00,10.0,ESE,9.2,-,N/A,,Overcast,110,2012-11-02 05:53:00